Marshfield, MA

12:50 AM EST on November 25, 2017 (GMT -0500)
Marshfield

Weather History for KGHG - December, 2011

Change the Weather History Date:

Sunday, December 18, 2011

  Actual Average (KPYM) Record (KPYM)
Temperature  
Mean Temperature 27 °F -  
Max Temperature 33 °F 41 °F 60 °F (1973)
Min Temperature 21 °F 21 °F 1 °F (1988)
Degree Days  
Heating Degree Days 38    
Moisture  
Dew Point 19 °F    
Average Humidity 69    
Maximum Humidity 86    
Minimum Humidity 50    
Precipitation  
Precipitation 0.00 in - - ()
Sea Level Pressure  
Sea Level Pressure 30.20 in    
Wind  
Wind Speed 10 mph (NW)    
Max Wind Speed 15 mph    
Max Gust Speed 22 mph    
Visibility 8 miles    
Events Rain , Snow    
Averages and records for this station are not official NWS values.
T = Trace of Precipitation, MM = Missing Value Source: NWS Daily Summary

Daily Weather History Graph

Daily Weather History Graph

Search for Another Location

Airport or City:

Trip Planner

Search our weather history database for the weather conditions in past years. The results will help you decide how hot, cold, wet, or windy it might be!

Date:

Astronomy

Dec. 18, 2011 Rise Set
Actual Time 7:05 AM EST 4:12 PM EST
Civil Twilight 6:34 AM EST 4:44 PM EST
Nautical Twilight 5:58 AM EST 5:19 PM EST
Astronomical Twilight 5:24 AM EST 5:53 PM EST
Moon No Moon Rise 11:41 AM EST (12/18)
Length of Visible Light 10h 10m
Length of Day
9h 06m
Last Quarter, 42% of the Moon is Illuminated
Dec 18
Last Quarter
Dec 24
New
Jan 1
First Quarter
Jan 9
Full
Jan 16
Last Quarter

Hourly Weather History & Observations

Time (EST) Temp. Windchill Dew Point Humidity Pressure Visibility Wind Dir Wind Speed Gust Speed Precip Events Conditions
12:15 AM 33.8 °F 24.8 °F 23.0 °F 65% 30.12 in 10.0 mi North 12.7 mph 16.1 mph N/A Rain Light Rain
12:35 AM 32.0 °F 22.1 °F 23.0 °F 69% 30.12 in 10.0 mi North 13.8 mph 21.9 mph N/A Rain Light Rain
12:55 AM 32.0 °F 24.8 °F 24.8 °F 75% 30.11 in 10.0 mi North 8.1 mph 20.7 mph N/A   Overcast
1:15 AM 32.0 °F 23.6 °F 26.6 °F 80% 30.12 in 10.0 mi NNW 10.4 mph 19.6 mph N/A Snow Light Snow
1:35 AM 32.0 °F 23.0 °F 26.6 °F 80% 30.12 in 8.0 mi North 11.5 mph 19.6 mph N/A   Overcast
1:55 AM 32.0 °F 22.1 °F 26.6 °F 80% 30.13 in 5.0 mi NNW 13.8 mph 19.6 mph N/A Snow Light Snow
2:15 AM 32.0 °F 22.5 °F 26.6 °F 80% 30.13 in 5.0 mi NNW 12.7 mph 20.7 mph N/A   Overcast
2:35 AM 32.0 °F 24.2 °F 26.6 °F 80% 30.13 in 5.0 mi NNW 9.2 mph 18.4 mph N/A   Overcast
2:55 AM 32.0 °F 23.6 °F 26.6 °F 80% 30.13 in 6.0 mi NNW 10.4 mph 19.6 mph N/A   Overcast
3:15 AM 32.0 °F 23.0 °F 26.6 °F 80% 30.13 in 5.0 mi NNW 11.5 mph 19.6 mph N/A   Overcast
3:35 AM 32.0 °F 23.0 °F 26.6 °F 80% 30.13 in 10.0 mi NNW 11.5 mph 18.4 mph N/A   Overcast
3:55 AM 32.0 °F 23.0 °F 26.6 °F 80% 30.13 in 5.0 mi NNW 11.5 mph 19.6 mph N/A Snow Light Snow
4:15 AM 32.0 °F 22.5 °F 26.6 °F 80% 30.13 in 7.0 mi NNW 12.7 mph 19.6 mph N/A   Overcast
4:35 AM 32.0 °F 22.5 °F 26.6 °F 80% 30.14 in 9.0 mi NNW 12.7 mph 20.7 mph N/A   Overcast
4:55 AM 30.2 °F 21.9 °F 26.6 °F 86% 30.14 in 8.0 mi NNW 9.2 mph 20.7 mph N/A   Overcast
5:15 AM 30.2 °F 22.6 °F 24.8 °F 80% 30.16 in 7.0 mi NW 8.1 mph - N/A   Overcast
5:35 AM 30.2 °F 21.9 °F 23.0 °F 75% 30.16 in 4.0 mi NW 9.2 mph - N/A Snow Light Snow
5:55 AM 28.4 °F 20.4 °F 23.0 °F 80% 30.17 in 5.0 mi NW 8.1 mph 17.3 mph N/A Snow Light Snow
6:15 AM 30.2 °F 23.4 °F 24.8 °F 80% 30.17 in 7.0 mi NW 6.9 mph - N/A Snow Light Snow
6:35 AM 28.4 °F 19.7 °F 23.0 °F 80% 30.18 in 5.0 mi NW 9.2 mph 16.1 mph N/A Snow Light Snow
6:55 AM 28.4 °F 19.7 °F 23.0 °F 80% 30.18 in 6.0 mi NNW 9.2 mph 17.3 mph N/A Snow Light Snow
7:15 AM 28.4 °F 19.1 °F 23.0 °F 80% 30.18 in 7.0 mi NW 10.4 mph - N/A   Overcast
7:35 AM 28.4 °F 18.0 °F 23.0 °F 80% 30.19 in 5.0 mi NW 12.7 mph 20.7 mph N/A   Overcast
7:55 AM 28.4 °F 18.5 °F 21.2 °F 74% 30.20 in 8.0 mi NW 11.5 mph 18.4 mph N/A Snow Light Snow
8:15 AM 28.4 °F 19.1 °F 21.2 °F 74% 30.20 in 5.0 mi NW 10.4 mph 20.7 mph N/A Snow Light Snow
8:35 AM 28.4 °F 18.0 °F 21.2 °F 74% 30.20 in 4.0 mi NW 12.7 mph 17.3 mph N/A Snow Light Snow
8:55 AM 28.4 °F 17.0 °F 21.2 °F 74% 30.20 in 5.0 mi NW 15.0 mph 21.9 mph N/A   Overcast
9:15 AM 28.4 °F 19.7 °F 23.0 °F 80% 30.20 in 7.0 mi NW 9.2 mph 21.9 mph N/A   Overcast
9:35 AM 28.4 °F 20.4 °F 23.0 °F 80% 30.20 in 7.0 mi NW 8.1 mph 19.6 mph N/A   Overcast
9:55 AM 28.4 °F 18.0 °F 23.0 °F 80% 30.21 in 10.0 mi NW 12.7 mph 18.4 mph N/A Rain Light Freezing Rain
10:15 AM 28.4 °F 18.0 °F 23.0 °F 80% 30.21 in 10.0 mi NW 12.7 mph 18.4 mph N/A Rain Light Freezing Rain
10:35 AM 28.4 °F 18.5 °F 23.0 °F 80% 30.21 in 10.0 mi NW 11.5 mph 18.4 mph N/A Rain Light Freezing Rain
10:55 AM 28.4 °F 20.4 °F 23.0 °F 80% 30.20 in 10.0 mi NW 8.1 mph 16.1 mph N/A   Overcast
11:15 AM 28.4 °F 19.1 °F 23.0 °F 80% 30.20 in 10.0 mi NW 10.4 mph 18.4 mph N/A   Overcast
11:35 AM 28.4 °F 19.7 °F 23.0 °F 80% 30.20 in 10.0 mi NNW 9.2 mph 18.4 mph N/A Rain Light Freezing Rain
11:55 AM 30.2 °F 22.6 °F 23.0 °F 75% 30.19 in 10.0 mi NNW 8.1 mph 18.4 mph N/A   Overcast
12:15 PM 30.2 °F 21.3 °F 21.2 °F 69% 30.19 in 10.0 mi NNW 10.4 mph 18.4 mph N/A Snow Light Snow
12:35 PM 30.2 °F 21.3 °F 21.2 °F 69% 30.19 in 10.0 mi NNW 10.4 mph 17.3 mph N/A   Overcast
1:15 PM 30.2 °F 20.8 °F 19.4 °F 64% 30.19 in 10.0 mi NW 11.5 mph 19.6 mph N/A   Overcast
1:35 PM 30.2 °F 21.3 °F 19.4 °F 64% 30.20 in 10.0 mi North 10.4 mph 17.3 mph N/A   Overcast
1:55 PM 30.2 °F 21.9 °F 17.6 °F 60% 30.20 in 10.0 mi NNW 9.2 mph 18.4 mph N/A   Overcast
2:15 PM 28.4 °F 19.1 °F 17.6 °F 64% 30.21 in 10.0 mi North 10.4 mph 17.3 mph N/A   Scattered Clouds
2:35 PM 30.2 °F 21.3 °F 17.6 °F 60% 30.21 in 10.0 mi NNW 10.4 mph 18.4 mph N/A   Mostly Cloudy
3:35 PM 28.4 °F 19.7 °F 12.2 °F 51% 30.22 in 10.0 mi NNW 9.2 mph 18.4 mph N/A   Clear
3:55 PM 28.4 °F 19.7 °F 12.2 °F 51% 30.23 in 10.0 mi NNW 9.2 mph - N/A   Clear
4:35 PM 26.6 °F 21.2 °F 10.4 °F 51% 30.23 in 10.0 mi NNW 4.6 mph - N/A   Clear
4:55 PM 26.6 °F 21.2 °F 10.4 °F 51% 30.24 in 10.0 mi WNW 4.6 mph - N/A   Clear
5:15 PM 26.6 °F 21.2 °F 10.4 °F 51% 30.25 in 10.0 mi WNW 4.6 mph - N/A   Clear
5:55 PM 24.8 °F 19.1 °F 8.6 °F 50% 30.27 in 10.0 mi West 4.6 mph - N/A   Clear
6:15 PM 23.0 °F 17.0 °F 8.6 °F 54% 30.28 in 10.0 mi West 4.6 mph - N/A   Clear
6:35 PM 23.0 °F 14.7 °F 10.4 °F 59% 30.29 in 10.0 mi West 6.9 mph - N/A   Clear
6:55 PM 23.0 °F 15.8 °F 8.6 °F 54% 30.29 in 10.0 mi West 5.8 mph - N/A   Clear
7:15 PM 23.0 °F 17.0 °F 8.6 °F 54% 30.29 in 10.0 mi West 4.6 mph - N/A   Clear
7:35 PM 23.0 °F 17.0 °F 8.6 °F 54% 30.29 in 10.0 mi West 4.6 mph - N/A   Clear
7:55 PM 23.0 °F 15.8 °F 8.6 °F 54% 30.29 in 10.0 mi West 5.8 mph - N/A   Clear
8:15 PM 23.0 °F 18.4 °F 8.6 °F 54% 30.28 in 10.0 mi West 3.5 mph - N/A   Clear
8:35 PM 23.0 °F 14.7 °F 8.6 °F 54% 30.29 in 10.0 mi West 6.9 mph - N/A   Clear
8:55 PM 23.0 °F 15.8 °F 8.6 °F 54% 30.29 in 10.0 mi West 5.8 mph - N/A   Clear
9:15 PM 23.0 °F 15.8 °F 8.6 °F 54% 30.29 in 10.0 mi West 5.8 mph - N/A   Clear
9:35 PM 21.2 °F 16.4 °F 8.6 °F 58% 30.28 in 10.0 mi West 3.5 mph - N/A   Clear
9:55 PM 21.2 °F 14.9 °F 8.6 °F 58% 30.29 in 10.0 mi West 4.6 mph - N/A   Clear
10:15 PM 21.2 °F 13.6 °F 8.6 °F 58% 30.30 in 10.0 mi West 5.8 mph - N/A   Clear
10:35 PM 21.2 °F 14.9 °F 8.6 °F 58% 30.30 in 10.0 mi West 4.6 mph - N/A   Clear
10:55 PM 21.2 °F 14.9 °F 10.4 °F 63% 30.30 in 10.0 mi WSW 4.6 mph - N/A   Clear
11:15 PM 21.2 °F 13.6 °F 8.6 °F 58% 30.31 in 10.0 mi West 5.8 mph - N/A   Clear
11:35 PM 21.2 °F 14.9 °F 8.6 °F 58% 30.30 in 10.0 mi West 4.6 mph - N/A   Clear
11:55 PM 21.2 °F 14.9 °F 8.6 °F 58% 30.30 in 10.0 mi WSW 4.6 mph - N/A   Clear